K8POS Weather Reports


time (UTC)temp
C
wind
direction
speed
KPH
gust
KPH
rain 1hr
cm
rain 24hr
cm
rain mn
cm
humidity
%
barometer
mb
20260506140007 6 311 9.7 19.3 0.00 0.05 0.00 67 1011.3
20260506133007 5 318 9.7 19.3 0.00 0.05 0.00 70 1011.2
20260506131505 5 329 9.7 20.9 0.00 0.05 0.00 71 1011.1
20260506130008 5 343 11.3 22.5 0.00 0.05 0.00 72 1010.9
20260506124504 4 330 9.7 20.9 0.00 0.05 0.00 75 1010.8
20260506123007 4 325 11.3 24.1 0.00 0.05 0.00 76 1010.6
20260506121504 4 327 9.7 24.1 0.00 0.05 0.00 77 1010.5
20260506113007 3 304 4.8 11.3 0.00 0.05 0.00 81 1010.0
20260506111504 3 315 4.8 14.5 0.00 0.05 0.00 82 1009.6
20260506104504 2 332 6.4 14.5 0.00 0.05 0.00 81 1009.1
20260506103007 3 330 6.4 12.9 0.00 0.05 0.00 81 1008.9
20260506101505 3 331 6.4 16.1 0.00 0.05 0.00 80 1008.5
20260506100009 3 341 8.0 19.3 0.00 0.05 0.00 80 1008.3
20260506094504 3 333 6.4 17.7 0.00 0.05 0.00 82 1008.6
20260506093008 4 329 6.4 16.1 0.00 0.05 0.00 81 1008.6
20260506091504 4 326 4.8 19.3 0.00 0.05 0.00 81 1008.3
20260506083008 5 339 6.4 12.9 0.00 0.05 0.00 74 1008.3
20260506081504 5 312 4.8 14.5 0.00 0.05 0.00 74 1008.2
20260506073008 5 312 4.8 9.7 0.00 0.05 0.00 78 1008.0
20260506071505 6 309 4.8 11.3 0.00 0.05 0.00 79 1007.8
20260506044505 8 263 3.2 12.9 0.00 0.05 0.00 66 1007.2
20260506041505 8 284 3.2 4.8 0.00 0.05 0.00 64 1007.3
20260506040040 8 285 3.2 6.4 0.00 0.05 0.00 65 1007.4
20260506033007 9 247 3.2 8.0 0.00 0.05 0.05 61 1007.2
20260506031504 9 244 3.2 8.0 0.00 0.05 0.05 60 1007.1
20260506030008 10 241 3.2 8.0 0.00 0.05 0.05 59 1007.4
20260506024504 10 234 4.8 11.3 0.00 0.05 0.05 57 1007.3
20260506023007 10 238 3.2 9.7 0.00 0.05 0.05 57 1007.3
20260506020007 11 238 4.8 12.9 0.00 0.05 0.05 55 1007.0
20260506014504 11 250 4.8 11.3 0.00 0.05 0.05 53 1006.9
20260506013007 11 224 4.8 14.5 0.00 0.05 0.05 52 1006.7
20260506011504 11 224 4.8 12.9 0.00 0.05 0.05 52 1006.6
20260506010007 11 227 4.8 11.3 0.00 0.05 0.05 52 1006.7
20260506003007 12 224 4.8 12.9 0.00 0.05 0.05 53 1006.5
20260506001505 12 225 4.8 11.3 0.00 0.05 0.05 54 1006.2
20260506000007 12 219 4.8 9.7 0.00 0.05 0.05 56 1006.1
20260505234505 12 218 4.8 14.5 0.00 0.05 0.05 56 1005.8
20260505233006 12 223 4.8 17.7 0.00 0.05 0.05 58 1005.8
20260505231505 12 224 6.4 16.1 0.00 0.05 0.05 59 1005.8
20260505230008 12 233 4.8 16.1 0.00 0.05 0.05 59 1005.9
20260505224504 12 227 6.4 17.7 0.00 0.05 0.05 59 1005.9
20260505223007 13 220 8.0 20.9 0.00 0.05 0.05 60 1005.9
20260505221505 13 218 4.8 12.9 0.00 0.05 0.05 64 1005.9
20260505214504 13 212 4.8 19.3 0.00 0.05 0.05 66 1006.0
20260505213007 13 229 8.0 14.5 0.00 0.05 0.05 66 1006.1
20260505211504 13 221 6.4 17.7 0.00 0.05 0.05 66 1006.1
20260505210008 13 225 6.4 17.7 0.00 0.05 0.05 67 1005.9
20260505204504 13 227 6.4 19.3 0.00 0.05 0.05 68 1006.1
20260505203008 12 215 6.4 17.7 0.00 0.05 0.05 67 1006.1
20260505201505 13 227 4.8 16.1 0.00 0.05 0.05 69 1006.2
20260505194504 12 229 6.4 20.9 0.00 0.05 0.05 68 1006.4
20260505193009 12 231 8.0 16.1 0.00 0.05 0.05 70 1006.2
20260505191504 12 228 6.4 19.3 0.00 0.05 0.05 70 1006.4
20260505184505 12 216 3.2 14.5 0.00 0.05 0.05 73 1006.2
20260505183008 11 221 3.2 19.3 0.00 0.05 0.05 76 1006.0
20260505180007 11 230 4.8 11.3 0.00 0.05 0.05 75 1005.9
20260505174504 11 219 3.2 11.3 0.00 0.05 0.05 75 1006.2
20260505173007 10 223 3.2 9.7 0.00 0.05 0.05 75 1006.1
20260505171504 10 296 1.6 6.4 0.00 0.05 0.05 77 1005.8
20260505170007 9 300 1.6 4.8 0.00 0.05 0.05 78 1005.9
20260505164504 9 300 1.6 6.4 0.03 0.05 0.05 76 1006.0
20260505161504 8 300 0.0 3.2 0.05 0.05 0.05 81 1005.9
20260505153007 9 301 1.6 3.2 0.03 0.03 0.03 75 1006.1
20260505151504 9 301 1.6 4.8 0.00 0.00 0.00 72 1005.9